Weather Roundup
Issued by NWS

Home | Current Version | Previous Version | Text Only | Print | Product List | Glossary On
Versions: 1 2 3 4 5 6 7 8 9 10 11 12 13 14 15 16 17 18 19 20 21 22 23 24 25 26 27 28 29 30 31 32 33 34 35 36 37 38 39 40 41 42 43 44 45 46 47 48 49 50
335
NZUS93 KARX 291059
HRRWXR

CURRENT HOURLY OBSERVATIONS ACROSS
MUCH OF THE UPPER MISSISSIPPI VALLEY
NATIONAL WEATHER SERVICE LA CROSSE WI
600 AM CDT THU JUN 29 2017


...SOUTHEAST MINNESOTA...


CITY           SKY/WX    TMP DP  RH WIND       PRES   REMARKS
ROCHESTER      CLEAR     61  60  97 W9        29.74R
ROCHESTER/MAYO FAIR      62  62 100 SW7       29.74R
WINONA         CLEAR     64  59  82 SW6       29.69R
AUSTIN         CLOUDY    61  57  88 W3        29.75R
ALBERT LEA     PTCLDY    63  61  94 SW5       29.76R
DODGE CENTER   CLEAR     61  57  88 SW5       29.74R
PRESTON        CLOUDY    61  58  91 W9        29.75R
OWATONNA       CLEAR     61  59  94 SW6       29.74R
FARIBAULT      CLEAR     61  59  94 W6        29.72R
$$

...ELSEWHERE IN MINNESOTA...


CITY           SKY/WX    TMP DP  RH WIND       PRES   REMARKS
MINNEAPOLIS    CLOUDY    65  58  78 W8        29.68R
INTNL FALLS    CLOUDY    59  56  89 NE6       29.67S
DULUTH         DRIZZLE   59  59 100 N10G18    29.60R FOG
RED WING       MOCLDY    64  57  77 W5        29.66R
REDWOOD FALLS  CLOUDY    60  57  89 W7        29.73R
MANKATO        CLEAR     59  58  96 W5        29.74R
WORTHINGTON    CLOUDY    58  57  97 SW5       29.79R
FAIRMONT       PTCLDY    59  58  96 SW5       29.78R
$$

...SOUTHWEST WISCONSIN...


CITY           SKY/WX    TMP DP  RH WIND       PRES   REMARKS
LA CROSSE      CLEAR     64  62  93 W6        29.68R
PRAIRIE DU CHI CLOUDY    66  64  90 CALM      29.71R
BOSCOBEL       CLOUDY    67  65  93 SW5       29.71R
LONE ROCK      MOCLDY    68  64  87 SW7       29.70R
PLATTEVILLE    CLOUDY    67  67  99 S9        29.74R
FORT MC COY    CLEAR     61  61 100 SW3       29.67S
CAMP DOUGLAS   PTCLDY    64  64  97 SW7       29.66R
MAUSTON-NEW LI SUNNY     66  64  93 SW9       29.66S
VIROQUA        FAIR      62  62 100 SW7       29.70R
WIS DELLS      CLEAR     65  62  90 SW8       29.68S
$$

...ELSEWHERE IN WISCONSIN...


CITY           SKY/WX    TMP DP  RH WIND       PRES   REMARKS
MILWAUKEE      MOCLDY    68  65  90 SW15      29.69R
MADISON        MOCLDY    69  66  90 SW9       29.70R
GREEN BAY      CLEAR     67  66  97 S10       29.64R
EAU CLAIRE     NOT AVBL
BLACK RVR FLS  FAIR      62  62 100 SW3       29.65R
MEDFORD        CLOUDY    62  60  93 W7        29.63R
WAUSAU         CLOUDY    64  63  96 W7        29.61F
WIS RAPIDS     CLOUDY    65  63  93 SW10      29.66S
MARSHFIELD     CLOUDY    64  61  90 W9        29.63S
RICE LAKE      CLOUDY    62  59  88 W7        29.64R
$$

...NORTHEAST IOWA...


CITY           SKY/WX    TMP DP  RH WIND       PRES   REMARKS
WATERLOO       MOCLDY    66  64  93 SW12      29.74R
DUBUQUE        MOCLDY    65  62  90 SW10      29.76R
DECORAH        PTCLDY    64  63  94 VRB3      29.72R
MASON CITY     CLOUDY    62  60  93 W8        29.77R
CHARLES CITY   CLOUDY    63  63 100 CALM      29.74S FOG
OELWEIN        CLOUDY    64  64 100 S7        29.75R
$$

...ELSEWHERE IN IOWA...


CITY           SKY/WX    TMP DP  RH WIND       PRES   REMARKS
DES MOINES     CLOUDY    71  67  87 SW9       29.75S
IOWA CITY      MOCLDY    69  62  78 SW12G22   29.78S
FORT DODGE     MOCLDY    63  59  88 CALM      29.77S
MARSHALLTOWN   CLOUDY    66  66 100 S6        29.75R
CEDAR RAPIDS   CLOUDY    66  64  93 SW12G20   29.76R
$$

...NORTHERN ILLINOIS...


CITY           SKY/WX    TMP DP  RH WIND       PRES   REMARKS
CHICAGO-OHARE  MOCLDY    71  63  75 SW9       29.75R
CHICAGO-MIDWAY MOCLDY    73  64  73 SW10      29.76R
MOLINE         MOCLDY    69  59  70 SW14G22   29.77R
ROCKFORD       CLOUDY    71  61  70 W15G22    29.75R
PEORIA         CLOUDY    66  63  90 W5        29.83R
$$

NOTE: "FAIR" INDICATES FEW OR NO CLOUDS BELOW 12,000 FEET WITH NO
SIGNIFICANT WEATHER AND/OR OBSTRUCTIONS TO VISIBILITY. WIND
SPEEDS ARE IN MILES-PER-HOUR.




USA.gov is the U.S. government's official web portal to all federal, state and local government web resources and services.